Valentine, NE

4:05 PM CST on December 14, 2019 (GMT -0600)
Miller Field

Weather History for KVTN - October, 2019

Change the Weather History Date:

Friday, October 11, 2019

  Actual Average Record
Temperature  
Mean Temperature 28 °F 50 °F  
Max Temperature 35 °F 65 °F 94 °F (2015)
Min Temperature 19 °F 36 °F 16 °F (1909)
Degree Days  
Heating Degree Days 38 15  
Month to date heating degree days 199 141  
Since 1 July heating degree days 252 326  
Cooling Degree Days 0 0  
Month to date cooling degree days 0 1  
Year to date cooling degree days 930 818  
Moisture  
Dew Point 18 °F    
Average Humidity 70    
Maximum Humidity 84    
Minimum Humidity 49    
Precipitation  
Precipitation T in 0.04 in 1.34 in (1973)
Month to date precipitation 0.65 0.53  
Year to date precipitation 27.55 18.28  
Snow  
Snow T in 0.00 in 1.70 in (2009)
Month to date snowfall 1.9 0.3  
Since 1 July snowfall 1.9 1.0  
Since 1 September snowfall 1.9 1.0  
Snow Depth 1.00 in    
Sea Level Pressure  
Sea Level Pressure 30.20 in    
Wind  
Wind Speed 16 mph ()    
Max Wind Speed 31 mph    
Max Gust Speed 42 mph    
Visibility 8.5 miles    
Events Snow    
T = Trace of Precipitation, MM = Missing Value Source: Averaged Metar Reports

Daily Weather History Graph

Daily Weather History Graph

Search for Another Location

Airport or City:

Astronomy

Oct. 11, 2019 Rise Set
Actual Time 7:50 AM CDT 7:06 PM CDT
Civil Twilight 7:22 AM CDT 7:34 PM CDT
Nautical Twilight 6:49 AM CDT 8:07 PM CDT
Astronomical Twilight 6:16 AM CDT 8:40 PM CDT
Moon 6:40 PM CDT (10/11) 5:27 AM CDT (10/11)
Length of Visible Light 12h 12m
Length of Day
11h 15m
Waxing Gibbous, 96% of the Moon is Illuminated
Oct 11
Waxing Gibbous
Oct 13
Full
Oct 21
Last Quarter
Oct 27
New
Nov 4
First Quarter

Hourly Weather History & Observations

Time (CDT) Temp. Windchill Dew Point Humidity Pressure Visibility Wind Dir Wind Speed Gust Speed Precip Events Conditions
12:52 AM 28.0 °F 15.7 °F 21.0 °F 75% 30.26 in 10.0 mi NW 17.3 mph 26.5 mph 0.00 in   Overcast
1:52 AM 28.0 °F 14.9 °F 19.9 °F 72% 30.24 in 10.0 mi NW 19.6 mph 32.2 mph N/A   Overcast
2:38 AM 27.0 °F 15.2 °F 19.9 °F 75% 30.16 in 10.0 mi NW 15.0 mph 26.5 mph N/A   Overcast
2:52 AM 27.0 °F 14.7 °F 21.0 °F 78% 30.24 in 6.0 mi West 16.1 mph 26.5 mph N/A   Haze
3:52 AM 25.0 °F 12.6 °F 19.0 °F 78% 30.24 in 10.0 mi WNW 15.0 mph 25.3 mph N/A   Overcast
4:08 AM 25.0 °F 11.7 °F 19.0 °F 78% 30.15 in 10.0 mi WNW 17.3 mph 24.2 mph N/A   Mostly Cloudy
4:26 AM 24.8 °F 11.5 °F 19.4 °F 80% 30.15 in 10.0 mi WNW 17.3 mph 25.3 mph N/A   Scattered Clouds
4:45 AM 26.1 °F 12.7 °F 19.0 °F 75% 30.15 in 10.0 mi WNW 18.4 mph 32.2 mph N/A   Mostly Cloudy
4:52 AM 26.1 °F 13.6 °F 19.0 °F 75% 30.25 in 10.0 mi WNW 16.1 mph 32.2 mph N/A   Mostly Cloudy
5:22 AM 25.0 °F 11.7 °F 18.0 °F 75% 30.15 in 10.0 mi WNW 17.3 mph 28.8 mph N/A   Overcast
5:52 AM 25.0 °F 11.3 °F 18.0 °F 75% 30.25 in 6.0 mi WNW 18.4 mph - N/A   Haze
6:52 AM 26.1 °F 12.7 °F 19.9 °F 78% 30.25 in 6.0 mi WNW 18.4 mph 28.8 mph 0.00 in   Haze
7:10 AM 26.1 °F 13.6 °F 19.0 °F 75% 30.15 in 7.0 mi WNW 16.1 mph 28.8 mph N/A   Overcast
7:27 AM 26.1 °F 14.0 °F 19.0 °F 75% 30.15 in 9.0 mi WNW 15.0 mph 31.1 mph N/A   Overcast
7:43 AM 26.1 °F 13.6 °F 19.0 °F 75% 30.15 in 8.0 mi WNW 16.1 mph 25.3 mph N/A   Overcast
7:52 AM 26.1 °F 12.3 °F 19.0 °F 75% 30.25 in 9.0 mi WNW 19.6 mph 26.5 mph N/A   Overcast
8:16 AM 26.1 °F 12.7 °F 19.0 °F 75% 30.15 in 2.0 mi WNW 18.4 mph 28.8 mph 0.00 in Snow Light Snow
8:23 AM 26.1 °F 13.6 °F 19.0 °F 75% 30.16 in 1.8 mi WNW 16.1 mph 28.8 mph 0.00 in Snow Light Snow
8:31 AM 26.6 °F 13.1 °F 19.4 °F 74% 30.16 in 2.5 mi WNW 19.6 mph 31.1 mph N/A Snow Light Snow
8:38 AM 26.1 °F 12.0 °F 19.0 °F 75% 30.16 in 5.0 mi WNW 20.7 mph 31.1 mph 0.00 in   Haze
8:52 AM 26.1 °F 12.7 °F 19.0 °F 75% 30.25 in 3.0 mi WNW 18.4 mph 29.9 mph 0.00 in Snow Light Snow
9:52 AM 28.0 °F 14.6 °F 18.0 °F 66% 30.26 in 10.0 mi WNW 20.7 mph 31.1 mph 0.00 in   Overcast
10:52 AM 30.0 °F 16.9 °F 17.1 °F 59% 30.26 in 10.0 mi NW 21.9 mph 34.5 mph N/A   Overcast
11:52 AM 30.9 °F 17.2 °F 17.1 °F 57% 30.25 in 10.0 mi WNW 25.3 mph 41.4 mph N/A   Mostly Cloudy
12:52 PM 32.0 °F 19.5 °F 16.0 °F 52% 30.25 in 10.0 mi WNW 21.9 mph 35.7 mph N/A   Mostly Cloudy
1:52 PM 33.1 °F 19.8 °F 17.1 °F 52% 30.24 in 10.0 mi West 26.5 mph 39.1 mph N/A   Scattered Clouds
2:52 PM 33.1 °F 19.8 °F 17.1 °F 52% 30.24 in 10.0 mi WNW 26.5 mph 36.8 mph N/A   Mostly Cloudy
3:52 PM 33.1 °F 19.6 °F 17.1 °F 52% 30.23 in 10.0 mi WNW 27.6 mph 41.4 mph N/A   Mostly Cloudy
4:52 PM 34.0 °F 21.3 °F 17.1 °F 50% 30.22 in 10.0 mi WNW 25.3 mph 38.0 mph N/A   Clear
5:52 PM 34.0 °F 23.0 °F 19.0 °F 54% 30.20 in 10.0 mi WNW 18.4 mph 36.8 mph N/A   Clear
6:52 PM 32.0 °F 24.2 °F 19.0 °F 59% 30.19 in 10.0 mi West 9.2 mph - N/A   Clear
7:52 PM 28.0 °F 20.8 °F 19.0 °F 69% 30.17 in 10.0 mi West 6.9 mph - N/A   Clear
8:52 PM 25.0 °F 16.3 °F 18.0 °F 75% 30.16 in 10.0 mi West 8.1 mph - N/A   Clear
9:52 PM 21.9 °F 17.2 °F 17.1 °F 82% 30.16 in 10.0 mi WSW 3.5 mph - N/A   Clear
10:52 PM 21.0 °F 12.4 °F 15.1 °F 78% 30.13 in 10.0 mi SW 6.9 mph - N/A   Clear
11:52 PM 19.9 °F 10.1 °F 15.1 °F 81% 30.12 in 10.0 mi SW 8.1 mph - N/A   Clear